Back to catalog

COSMOS 1579 COOLANT

LostLEO
NORAD 26515·DEBRIS·🇷🇺 Russia

Launched Jun 29, 1984 from Baikonur Cosmodrome

Loading…

Next Passes (next 24 hours)

TLE

StaleSource: Space-Track

Epoch: Jun 11, 2010, 07:37 UTC

1 26515U 84069G   10162.31738229 -.00000013 +00000-0 +61887-4 0  9990
2 26515 065.0424 059.4290 0066304 234.4634 125.5754 13.89360904520623

Track COSMOS 1579 COOLANT in real time with AllMySat

Download on the App Store